SITRO-AIS 12 (SMIRENNIY)

Last updated on Sat Aug 15 2026 00:03:45 GMT+0000 (Coordinated Universal Time)

1 57204U 23091AQ 26226.57189123 .00012312 00000+0 30666-3 0 9999 2 57204 97.5051 298.7720 0005788 199.8400 160.2621 15.40376587173758
UTC large
Height (km)
Speed (km/s)
/
Latitude / Longitude
Inclination (degrees)
Orbital Period (minutes)
Azimuth
Elevation
Range (km)
Doppler Factor

Next 0 passes for location: London (51.5072 / 0.1276)

No passes found over London.
SITRO-AIS 12 (SMIRENNIY)